Smithville, OH

8:15 PM EDT on September 30, 2016 (GMT -0400)
Wayne County

Weather History for KBJJ - December, 2012

Change the Weather History Date:

Wednesday, December 5, 2012

  Actual Average Record
Temperature  
Mean Temperature 34 °F -  
Max Temperature 39 °F 40 °F 68 °F (2001)
Min Temperature 26 °F 27 °F 14 °F (2005)
Degree Days  
Heating Degree Days 32    
Moisture  
Dew Point 27 °F    
Average Humidity 78    
Maximum Humidity 93    
Minimum Humidity 61    
Precipitation  
Precipitation 0.00 in - - ()
Sea Level Pressure  
Sea Level Pressure 30.32 in    
Wind  
Wind Speed 8 mph (NNW)    
Max Wind Speed 16 mph    
Max Gust Speed 23 mph    
Visibility 10 miles    
Events      
Averages and records for this station are not official NWS values.
T = Trace of Precipitation, MM = Missing Value Source: NWS Daily Summary

Daily Weather History Graph

Daily Weather History Graph

Search for Another Location

Airport or City:

Trip Planner

Search our weather history database for the weather conditions in past years. The results will help you decide how hot, cold, wet, or windy it might be!

Date:

Astronomy

Dec. 05, 2012 Rise Set
Actual Time 7:37 AM EST 4:59 PM EST
Civil Twilight 7:06 AM EST 5:30 PM EST
Nautical Twilight 6:32 AM EST 6:04 PM EST
Astronomical Twilight 5:58 AM EST 6:37 PM EST
Moon 11:49 PM EST (12/5) 11:58 AM EST (12/5)
Length of Visible Light 10h 23m
Length of Day
9h 22m
Waning Gibbous, 60% of the Moon is Illuminated
Dec 5
Waning Gibbous
Dec 6
Last Quarter
Dec 13
New
Dec 20
First Quarter
Dec 28
Full

Hourly Weather History & Observations

Time (EST) Temp. Windchill Dew Point Humidity Pressure Visibility Wind Dir Wind Speed Gust Speed Precip Events Conditions
12:56 AM 39.9 °F 35.8 °F 36.0 °F 86% 30.15 in 10.0 mi West 5.8 mph - N/A   Clear
1:56 AM 39.0 °F 34.0 °F 36.0 °F 89% 30.17 in 10.0 mi West 6.9 mph - N/A   Clear
2:56 AM 37.0 °F 31.6 °F 34.0 °F 89% 30.19 in 10.0 mi WSW 6.9 mph - N/A   Clear
3:56 AM 36.0 °F 30.3 °F 34.0 °F 93% 30.20 in 10.0 mi West 6.9 mph - N/A   Clear
4:56 AM 36.0 °F 29.6 °F 33.1 °F 89% 30.22 in 10.0 mi West 8.1 mph - N/A   Clear
5:56 AM 35.1 °F 29.3 °F 32.0 °F 89% 30.25 in 10.0 mi WNW 6.9 mph - N/A   Clear
6:56 AM 35.1 °F 28.6 °F 32.0 °F 89% 30.26 in 10.0 mi WNW 8.1 mph - N/A   Clear
7:56 AM 35.1 °F 28.6 °F 30.9 °F 85% 30.29 in 10.0 mi NW 8.1 mph - N/A   Mostly Cloudy
9:56 AM 36.0 °F 26.3 °F 28.9 °F 76% 30.34 in 10.0 mi NW 16.1 mph - N/A   Mostly Cloudy
10:56 AM 36.0 °F 26.3 °F 28.9 °F 76% 30.36 in 10.0 mi NNW 16.1 mph 23.0 mph N/A   Overcast
11:56 AM 35.1 °F 25.5 °F 27.0 °F 72% 30.36 in 10.0 mi North 15.0 mph - N/A   Mostly Cloudy
12:56 PM 34.0 °F 25.5 °F 25.0 °F 70% 30.36 in 10.0 mi North 11.5 mph - N/A   Mostly Cloudy
1:56 PM 35.1 °F 26.4 °F 24.1 °F 64% 30.36 in 10.0 mi North 12.7 mph - N/A   Mostly Cloudy
2:09 PM 35.6 °F 27.5 °F 24.8 °F 65% 30.32 in 10.0 mi North 11.5 mph - N/A   Partly Cloudy
2:56 PM 34.0 °F 26.6 °F 23.0 °F 64% 30.37 in 10.0 mi NNE 9.2 mph 17.3 mph N/A   Partly Cloudy
3:56 PM 34.0 °F 25.5 °F 21.9 °F 61% 30.38 in 10.0 mi North 11.5 mph - N/A   Clear
4:56 PM 32.0 °F 25.6 °F 23.0 °F 69% 30.39 in 10.0 mi NNE 6.9 mph - N/A   Scattered Clouds
5:56 PM 30.9 °F 26.2 °F 23.0 °F 72% 30.40 in 10.0 mi NNE 4.6 mph - N/A   Mostly Cloudy
6:56 PM 30.9 °F - 23.0 °F 72% 30.40 in 10.0 mi Calm Calm - N/A   Overcast
7:56 PM 30.9 °F 27.5 °F 25.0 °F 79% 30.40 in 10.0 mi ESE 3.5 mph - 0.00 in   Overcast
8:56 PM 30.9 °F 27.5 °F 24.1 °F 76% 30.39 in 10.0 mi East 3.5 mph - N/A   Overcast
9:56 PM 28.0 °F - 21.9 °F 78% 30.39 in 10.0 mi Calm Calm - N/A   Clear
10:56 PM 28.0 °F - 21.9 °F 78% 30.38 in 10.0 mi Calm Calm - N/A   Clear
11:56 PM 26.1 °F - 23.0 °F 88% 30.38 in 10.0 mi Calm Calm - N/A   Clear